User: anonymous   Login
Location: Vancouver
(49.2500°N, 123.1330°W)
Time: 15:03:51
(UTC-07:00)
Language:

ERS-2 - Orbit

View from above orbital plane
View from above orbital plane
View from above satellite
View from above satellite

Ground track
Ground track

The orbit data is extracted from the following two-line orbital elements,

1 23560U 95021A   15147.15685760  .00003941  00000-0  21220-3 0  9996
2 23560 098.5202 033.4326 0004100 348.7412 011.3718 15.15535995 61263
Epoch (UTC): 27 May 2015 03:45:52
Eccentricity: 0.0004100
inclination: 98.5202°
perigee height: 516 km
apogee height: 522 km
right ascension of ascending node: 33.4326°
argument of perigee: 348.7412°
revolutions per day: 15.15535995
mean anomaly at epoch: 11.3718°
orbit number at epoch: 6126

The dashed part of the orbit path shows where the satellite is in the earth's shadow,  

DLR